WTB161 EBBR-EDDS

Flight info

Callsign WTB161
Flight time 0h 43m
Altitude 23000
Route SOPOK Y863 ROPUV L607 UBIDU L984 RUDUS Z738 UBENO N850 KRH T128 BADSO BADSO2A
Aircraft B38M/M-SDE1FGHILORVWXY/HB1

Departure

Time 2026-05-07 19:21
Airport Brussels Airport (EBBR)

Arrival

Time 2026-05-07 20:04
Airport Stuttgart Airport (EDDS)
Time Latitude Longitude Altitude Speed Heading
2026-05-07 18:49 50.90239 4.48467 139 ft 0 kts 337°
2026-05-07 19:10 50.90222 4.48478 139 ft 4 kts 341°
2026-05-07 19:10 50.90196 4.48489 139 ft 4 kts 352°
2026-05-07 19:11 50.90170 4.48488 140 ft 4 kts 24°
2026-05-07 19:11 50.90158 4.48471 140 ft 0 kts 65°
2026-05-07 19:15 50.90159 4.48475 141 ft 2 kts 65°
2026-05-07 19:15 50.90177 4.48564 141 ft 13 kts 85°
2026-05-07 19:16 50.90176 4.48720 144 ft 14 kts 85°
2026-05-07 19:16 50.90196 4.48873 145 ft 15 kts 65°
2026-05-07 19:16 50.90244 4.49031 144 ft 17 kts 65°
2026-05-07 19:16 50.90298 4.49222 141 ft 21 kts 66°
2026-05-07 19:17 50.90363 4.49443 138 ft 23 kts 65°
2026-05-07 19:17 50.90428 4.49577 138 ft 24 kts 27°
2026-05-07 19:17 50.90591 4.49649 136 ft 26 kts 14°
2026-05-07 19:17 50.90705 4.49696 135 ft 6 kts 14°
2026-05-07 19:18 50.90744 4.49711 135 ft 0 kts 12°
2026-05-07 19:18 50.90753 4.49714 135 ft 3 kts 12°
2026-05-07 19:18 50.90775 4.49722 135 ft 9 kts 13°
2026-05-07 19:18 50.90889 4.49770 126 ft 25 kts 15°
2026-05-07 19:19 50.91017 4.49896 125 ft 13 kts 26°
2026-05-07 19:19 50.91113 4.49941 123 ft 15 kts 339°
2026-05-07 19:19 50.91123 4.49829 123 ft 9 kts 243°
2026-05-07 19:19 50.91117 4.49807 125 ft 0 kts 246°
2026-05-07 19:20 50.91093 4.49721 129 ft 30 kts 245°
2026-05-07 19:20 50.90911 4.49090 136 ft 96 kts 245°
2026-05-07 19:20 50.90548 4.47830 143 ft 150 kts 245°
2026-05-07 19:21 50.90072 4.46128 251 ft 182 kts 246°
2026-05-07 19:21 50.89528 4.44208 660 ft 197 kts 245°
2026-05-07 19:21 50.88993 4.42401 1646 ft 179 kts 244°
2026-05-07 19:21 50.88441 4.40534 2345 ft 195 kts 242°
2026-05-07 19:22 50.87502 4.38830 2898 ft 217 kts 208°
2026-05-07 19:22 50.86013 4.38408 3455 ft 234 kts 169°
2026-05-07 19:22 50.84592 4.39669 4269 ft 236 kts 129°
2026-05-07 19:22 50.83798 4.41939 5246 ft 240 kts 118°
2026-05-07 19:23 50.82894 4.44215 6260 ft 244 kts 123°
2026-05-07 19:23 50.81966 4.46486 6857 ft 252 kts 123°
2026-05-07 19:23 50.81026 4.48819 6974 ft 252 kts 123°
2026-05-07 19:23 50.80091 4.51160 7013 ft 252 kts 123°
2026-05-07 19:24 50.79144 4.53538 7394 ft 257 kts 123°
2026-05-07 19:24 50.78190 4.55946 8259 ft 265 kts 123°
2026-05-07 19:24 50.77183 4.58493 8950 ft 282 kts 122°
2026-05-07 19:24 50.76136 4.61147 9930 ft 285 kts 122°
2026-05-07 19:25 50.75051 4.63887 10674 ft 298 kts 125°
2026-05-07 19:25 50.73702 4.66455 11128 ft 318 kts 133°
2026-05-07 19:25 50.72171 4.69185 11537 ft 339 kts 132°
2026-05-07 19:25 50.70601 4.72042 11892 ft 359 kts 131°
2026-05-07 19:26 50.69208 4.75445 12169 ft 381 kts 114°
2026-05-07 19:26 50.68351 4.79465 12494 ft 398 kts 109°
2026-05-07 19:26 50.67504 4.83669 13058 ft 405 kts 108°
2026-05-07 19:26 50.66657 4.87930 13803 ft 409 kts 108°
2026-05-07 19:27 50.65807 4.92232 14396 ft 414 kts 108°
2026-05-07 19:27 50.64948 4.96588 15023 ft 418 kts 108°
2026-05-07 19:27 50.64079 5.00989 15635 ft 422 kts 108°
2026-05-07 19:27 50.63203 5.05415 16218 ft 426 kts 108°
2026-05-07 19:28 50.62316 5.09888 16797 ft 430 kts 108°
2026-05-07 19:28 50.61421 5.14391 17368 ft 434 kts 108°
2026-05-07 19:28 50.60516 5.18934 17947 ft 437 kts 108°
2026-05-07 19:28 50.59601 5.23519 18486 ft 441 kts 108°
2026-05-07 19:29 50.58622 5.28109 18960 ft 444 kts 113°
2026-05-07 19:29 50.57133 5.32361 19446 ft 445 kts 128°
2026-05-07 19:29 50.54998 5.35867 19936 ft 445 kts 142°
2026-05-07 19:29 50.52625 5.39032 20395 ft 449 kts 140°
2026-05-07 19:30 50.50282 5.42294 20858 ft 452 kts 140°
2026-05-07 19:30 50.47932 5.45596 21323 ft 455 kts 140°
2026-05-07 19:30 50.45579 5.48913 21790 ft 458 kts 140°
2026-05-07 19:30 50.43197 5.52271 22239 ft 461 kts 140°
2026-05-07 19:31 50.40798 5.55649 22678 ft 464 kts 140°
2026-05-07 19:31 50.38380 5.59050 23028 ft 469 kts 140°
2026-05-07 19:31 50.35951 5.62461 23091 ft 469 kts 140°
2026-05-07 19:31 50.33517 5.65875 23074 ft 468 kts 140°
2026-05-07 19:32 50.31089 5.69274 23076 ft 468 kts 140°
2026-05-07 19:32 50.28666 5.72660 23075 ft 468 kts 140°
2026-05-07 19:32 50.26451 5.76353 23051 ft 470 kts 127°
2026-05-07 19:32 50.24916 5.80875 23083 ft 473 kts 111°
2026-05-07 19:33 50.23962 5.85800 23078 ft 474 kts 107°
2026-05-07 19:33 50.23074 5.90749 23069 ft 474 kts 106°
2026-05-07 19:33 50.22206 5.95719 23071 ft 475 kts 106°
2026-05-07 19:33 50.21350 6.00703 23070 ft 474 kts 105°
2026-05-07 19:34 50.20503 6.05669 23068 ft 474 kts 105°
2026-05-07 19:34 50.19659 6.10611 23067 ft 474 kts 105°
2026-05-07 19:34 50.18816 6.15585 23068 ft 474 kts 104°
2026-05-07 19:34 50.18466 6.20686 23056 ft 474 kts 88°
2026-05-07 19:35 50.18693 6.25731 23073 ft 475 kts 85°
2026-05-07 19:35 50.18968 6.30873 23066 ft 475 kts 85°
2026-05-07 19:35 50.19264 6.36006 23069 ft 475 kts 85°
2026-05-07 19:35 50.19570 6.41093 23069 ft 475 kts 84°
2026-05-07 19:36 50.19884 6.46250 23065 ft 475 kts 85°
2026-05-07 19:36 50.20196 6.51369 23068 ft 475 kts 85°
2026-05-07 19:36 50.20506 6.56488 23056 ft 475 kts 85°
2026-05-07 19:36 50.20815 6.61639 23056 ft 475 kts 85°
2026-05-07 19:37 50.21125 6.66771 23058 ft 475 kts 85°
2026-05-07 19:37 50.21431 6.71904 23068 ft 475 kts 85°
2026-05-07 19:37 50.21736 6.77033 23069 ft 475 kts 85°
2026-05-07 19:37 50.22038 6.82159 23072 ft 475 kts 85°
2026-05-07 19:38 50.22064 6.87308 23073 ft 473 kts 95°
2026-05-07 19:38 50.21793 6.92390 23069 ft 474 kts 95°
2026-05-07 19:38 50.21536 6.97534 23076 ft 474 kts 95°
2026-05-07 19:38 50.21018 7.02601 23060 ft 473 kts 107°
2026-05-07 19:39 50.19694 7.07267 23071 ft 469 kts 124°
2026-05-07 19:39 50.17646 7.11199 23083 ft 467 kts 135°
2026-05-07 19:39 50.15461 7.14964 23072 ft 468 kts 133°
2026-05-07 19:39 50.13322 7.18802 23078 ft 469 kts 132°
2026-05-07 19:40 50.11231 7.22601 23072 ft 469 kts 132°
2026-05-07 19:40 50.09122 7.26456 23072 ft 469 kts 132°
2026-05-07 19:40 50.07010 7.30322 23071 ft 469 kts 132°
2026-05-07 19:40 50.04895 7.34189 23068 ft 469 kts 132°
2026-05-07 19:41 50.02786 7.38044 23074 ft 469 kts 132°
2026-05-07 19:41 50.00666 7.41911 23073 ft 469 kts 132°
2026-05-07 19:41 49.98548 7.45769 23073 ft 469 kts 132°
2026-05-07 19:41 49.96431 7.49621 23072 ft 469 kts 132°
2026-05-07 19:42 49.94319 7.53456 23044 ft 469 kts 132°
2026-05-07 19:42 49.92194 7.57309 23063 ft 470 kts 132°
2026-05-07 19:42 49.90068 7.61159 23061 ft 469 kts 132°
2026-05-07 19:42 49.87944 7.65001 23061 ft 469 kts 132°
2026-05-07 19:43 49.85817 7.68840 23064 ft 469 kts 132°
2026-05-07 19:43 49.83691 7.72674 23051 ft 470 kts 132°
2026-05-07 19:43 49.81559 7.76511 23063 ft 471 kts 132°
2026-05-07 19:43 49.79417 7.80362 23061 ft 471 kts 132°
2026-05-07 19:44 49.77287 7.84186 23056 ft 471 kts 132°
2026-05-07 19:44 49.75147 7.88021 23058 ft 471 kts 132°
2026-05-07 19:44 49.73004 7.91857 23060 ft 471 kts 132°
2026-05-07 19:44 49.70858 7.95691 23054 ft 471 kts 132°
2026-05-07 19:45 49.68715 7.99515 23047 ft 471 kts 132°
2026-05-07 19:45 49.66565 8.03346 23057 ft 471 kts 132°
2026-05-07 19:45 49.64423 8.07157 23058 ft 471 kts 132°
2026-05-07 19:45 49.62265 8.10991 23055 ft 471 kts 132°
2026-05-07 19:46 49.60142 8.14755 22712 ft 466 kts 132°
2026-05-07 19:46 49.58028 8.18496 22028 ft 459 kts 132°
2026-05-07 19:46 49.55937 8.22192 21424 ft 455 kts 132°
2026-05-07 19:46 49.53897 8.25795 20791 ft 451 kts 132°
2026-05-07 19:47 49.51844 8.29416 20156 ft 447 kts 132°
2026-05-07 19:47 49.49807 8.33003 19528 ft 443 kts 132°
2026-05-07 19:47 49.47767 8.36590 18894 ft 438 kts 132°
2026-05-07 19:47 49.45774 8.40090 18217 ft 434 kts 132°
2026-05-07 19:48 49.43823 8.43514 17530 ft 429 kts 132°
2026-05-07 19:48 49.41867 8.46939 16932 ft 425 kts 132°
2026-05-07 19:48 49.39924 8.50339 16330 ft 421 kts 132°
2026-05-07 19:48 49.38000 8.53702 15738 ft 417 kts 132°
2026-05-07 19:49 49.36099 8.57018 15154 ft 412 kts 132°
2026-05-07 19:49 49.34215 8.60302 14596 ft 408 kts 132°
2026-05-07 19:49 49.32344 8.63560 14036 ft 404 kts 132°
2026-05-07 19:49 49.30493 8.66776 13435 ft 401 kts 132°
2026-05-07 19:50 49.28663 8.69954 12862 ft 398 kts 132°
2026-05-07 19:50 49.26852 8.73094 12321 ft 388 kts 132°
2026-05-07 19:50 49.25102 8.76122 11845 ft 371 kts 132°
2026-05-07 19:50 49.23440 8.78991 11647 ft 348 kts 133°
2026-05-07 19:51 49.21878 8.81683 11458 ft 328 kts 133°
2026-05-07 19:51 49.20406 8.84222 11270 ft 310 kts 133°
2026-05-07 19:51 49.19012 8.86622 11116 ft 294 kts 133°
2026-05-07 19:51 49.17674 8.88927 10963 ft 287 kts 133°
2026-05-07 19:52 49.16353 8.91203 10826 ft 286 kts 133°
2026-05-07 19:52 49.15036 8.93471 10694 ft 285 kts 133°
2026-05-07 19:52 49.13721 8.95734 10566 ft 285 kts 133°
2026-05-07 19:52 49.12416 8.97978 10430 ft 284 kts 133°
2026-05-07 19:53 49.11101 9.00235 10304 ft 284 kts 133°
2026-05-07 19:53 49.09790 9.02486 10166 ft 283 kts 133°
2026-05-07 19:53 49.08482 9.04729 10029 ft 283 kts 133°
2026-05-07 19:53 49.07175 9.06968 9835 ft 282 kts 133°
2026-05-07 19:54 49.05874 9.09196 9499 ft 281 kts 133°
2026-05-07 19:54 49.04580 9.11410 9158 ft 279 kts 133°
2026-05-07 19:54 49.03292 9.13611 8854 ft 278 kts 133°
2026-05-07 19:54 49.02006 9.15808 8558 ft 277 kts 133°
2026-05-07 19:55 49.00727 9.17989 8276 ft 276 kts 133°
2026-05-07 19:55 48.99453 9.20162 7985 ft 274 kts 133°
2026-05-07 19:55 48.98184 9.22324 7703 ft 273 kts 133°
2026-05-07 19:55 48.96925 9.24466 7419 ft 269 kts 133°
2026-05-07 19:56 48.95686 9.26574 7141 ft 267 kts 133°
2026-05-07 19:56 48.94452 9.28670 6853 ft 264 kts 133°
2026-05-07 19:56 48.93257 9.30700 6577 ft 258 kts 133°
2026-05-07 19:56 48.92076 9.32704 6303 ft 251 kts 133°
2026-05-07 19:57 48.90749 9.34412 5987 ft 245 kts 152°
2026-05-07 19:57 48.89277 9.35584 5739 ft 239 kts 153°
2026-05-07 19:57 48.87830 9.36734 5544 ft 230 kts 153°
2026-05-07 19:57 48.86431 9.37839 5412 ft 217 kts 153°
2026-05-07 19:58 48.85152 9.38847 5305 ft 204 kts 153°
2026-05-07 19:58 48.83897 9.39833 5207 ft 198 kts 153°
2026-05-07 19:58 48.82674 9.40793 5127 ft 198 kts 153°
2026-05-07 19:58 48.81452 9.41750 5033 ft 198 kts 153°
2026-05-07 19:59 48.80225 9.42711 4762 ft 200 kts 153°
2026-05-07 19:59 48.78977 9.43689 4330 ft 204 kts 153°
2026-05-07 19:59 48.77727 9.44667 4096 ft 199 kts 153°
2026-05-07 19:59 48.76533 9.45600 3943 ft 192 kts 153°
2026-05-07 20:00 48.75319 9.46133 3850 ft 175 kts 183°
2026-05-07 20:00 48.74237 9.45516 3743 ft 168 kts 223°
2026-05-07 20:00 48.73503 9.44140 3676 ft 169 kts 238°
2026-05-07 20:00 48.73096 9.43105 3583 ft 169 kts 244°
2026-05-07 20:01 48.72529 9.40920 3378 ft 166 kts 253°
2026-05-07 20:01 48.72312 9.39822 3260 ft 158 kts 255°
2026-05-07 20:01 48.72018 9.38247 3065 ft 153 kts 255°
2026-05-07 20:01 48.71726 9.36699 2880 ft 153 kts 255°
2026-05-07 20:02 48.71435 9.35158 2682 ft 152 kts 255°
2026-05-07 20:02 48.71141 9.33612 2469 ft 152 kts 255°
2026-05-07 20:02 48.70846 9.32071 2259 ft 152 kts 255°
2026-05-07 20:02 48.70558 9.30531 2049 ft 152 kts 254°
2026-05-07 20:03 48.70270 9.28999 1841 ft 150 kts 255°
2026-05-07 20:03 48.69991 9.27506 1669 ft 149 kts 254°
2026-05-07 20:03 48.69707 9.26012 1485 ft 147 kts 255°
2026-05-07 20:03 48.69427 9.24510 1327 ft 145 kts 255°
2026-05-07 20:04 48.69166 9.23131 1288 ft 124 kts 253°
2026-05-07 20:04 48.68959 9.22039 1288 ft 93 kts 253°
2026-05-07 20:04 48.68829 9.21348 1288 ft 39 kts 257°
2026-05-07 20:04 48.68836 9.20977 1288 ft 28 kts 284°
2026-05-07 20:05 48.68855 9.20866 1288 ft 0 kts 284°
2026-05-07 20:05 48.68856 9.20859 1288 ft 2 kts 284°
2026-05-07 20:05 48.68860 9.20837 1288 ft 3 kts 284°
2026-05-07 20:05 48.68876 9.20766 1288 ft 15 kts 302°
2026-05-07 20:06 48.68973 9.20611 1288 ft 23 kts 314°
2026-05-07 20:06 48.69061 9.20437 1288 ft 18 kts 274°
2026-05-07 20:06 48.69031 9.20274 1288 ft 15 kts 253°
2026-05-07 20:06 48.69002 9.20127 1288 ft 13 kts 254°
2026-05-07 20:07 48.68969 9.20014 1288 ft 10 kts 210°
2026-05-07 20:07 48.68911 9.20025 1288 ft 1 kts 164°
2026-05-07 20:07 48.68906 9.20027 1288 ft 0 kts 163°